OneWeb SL0576

operational
NORAD ID: 56065 Int'l Des: 2023-043 Owner: ONEWEBN Country: UK Constellation: oneweb
LEOCIRCULARPOLARONEWEB_TYPE

Über OneWeb SL0576

Beschreibung wird geladen...

Live-Position

3D-Globus wird geladen...

Nächste Überflüge

Höhenverlauf

Altitude vs Time

uPlot chart will show altitude changes over time

Zweizeiliger Elementsatz

1 56065U 23043V 26034.15495489 .00000085 00000-0 18792-3 0 9997
2 56065 87.9012 255.4536 0001653 78.4507 281.6809 13.16594697141323
Epoch: 3. Feb. 2026 • Age: 5 hours

Aktueller Status

Höhe 1224.4 km
Geschwindigkeit 7.24 km/s
Subsatellitenpunkt -67.61°S, 15.94°W
Startdatum 26. März 2023
Alter 2.8 years
Typ internet

Technische Details

Klassifizierung Payload
Masse 148.00 kg
Trockenmasse 140.00 kg
Gesamtmasse 148.00 kg
Länge 1.30 m
Durchmesser 1.00 m
Spannweite 5.00 m
Form Trapezoid+2 pan
Hersteller ONEWUS
Bus-Typ ARROW
Phasenstatus In Orbit
Besitzer/Staat ONEWEBN/UK

Große Konstellationen

Loading constellations...